Location: Los Gatos B&B
(42.6926°N, 77.0646°W)
Time: 15:11:54
(UTC-05:00)

SL-16 R/B - Visible Passes

Search period start: 28 January 2015 00:00
Search period end: 07 February 2015 00:00
Orbit: 843 x 847 km, 71.0° (Epoch: 27 January)

Date Brightness Start Highest point End Pass type
(mag) Time Alt. Az. Time Alt. Az. Time Alt. Az.
29 Jan 4.7 06:55:39 10° NNE 06:57:05 11° NE 06:58:48 10° ENE visible
30 Jan 4.8 06:41:53 10° NNE 06:43:05 11° NE 06:44:32 10° NE visible
31 Jan 4.8 06:28:10 10° NNE 06:29:03 10° NE 06:30:12 10° NE visible
01 Feb 4.9 06:14:35 10° NNE 06:15:02 10° NE 06:15:45 10° NE visible
06 Feb 3.3 06:45:21 10° NNW 06:50:46 45° ENE 06:56:11 10° SE visible
